QPF
0.02 0.03 0.03 0.03 0.01 0.02 0.03 0.03 0.03 0.02 0.04 0.08 0.09 0.09 0.14 0.11 0.06 0.04 0.02 0.03 0.03 0.03 0.02 0.02 0.01 0.02 0.02 0.03 0.04 0.06 0.06 0.06 0.05 0.04 0.04 0.04 0.03 0.02 0.01 0.01 0.01 0.00 0.00
0.02 0.02 0.02 0.02 0.02 0.02 0.02 0.02 0.02 0.02 0.03 0.07 0.10 0.09 0.12 0.11 0.06 0.05 0.04 0.03 0.04 0.04 0.02 0.02 0.01 0.01 0.02 0.03 0.04 0.05 0.06 0.07 0.05 0.06 0.05 0.04 0.03 0.03 0.02 0.01 0.01 0.01 0.00
0.01 0.01 0.01 0.02 0.03 0.03 0.02 0.02 0.02 0.02 0.03 0.05 0.09 0.09 0.09 0.09 0.06 0.03 0.04 0.04 0.04 0.06 0.05 0.03 0.03 0.02 0.02 0.02 0.03 0.04 0.05 0.06 0.06 0.06 0.06 0.05 0.03 0.02 0.02 0.01 0.01 0.01 0.01
0.01 0.01 0.01 0.02 0.02 0.02 0.03 0.03 0.03 0.03 0.04 0.04 0.05 0.06 0.07 0.07 0.06 0.04 0.03 0.04 0.04 0.04 0.07 0.07 0.07 0.07 0.04 0.02 0.02 0.02 0.04 0.05 0.07 0.06 0.06 0.06 0.04 0.03 0.03 0.02 0.02 0.01 0.01
0.01 0.01 0.01 0.01 0.01 0.01 0.01 0.02 0.03 0.04 0.05 0.05 0.04 0.03 0.03 0.04 0.04 0.04 0.04 0.04 0.04 0.03 0.04 0.05 0.05 0.06 0.06 0.05 0.04 0.02 0.03 0.03 0.04 0.05 0.05 0.05 0.05 0.04 0.04 0.03 0.02 0.02 0.01
0.01 0.02 0.02 0.02 0.02 0.01 0.01 0.01 0.01 0.03 0.05 0.05 0.04 0.03 0.02 0.02 0.03 0.03 0.03 0.03 0.03 0.03 0.03 0.05 0.05 0.04 0.04 0.03 0.03 0.03 0.03 0.03 0.03 0.03 0.03 0.04 0.04 0.04 0.04 0.03 0.03 0.02 0.02
0.03 0.03 0.02 0.03 0.03 0.02 0.01 0.01 0.01 0.02 0.03 0.04 0.03 0.02 0.02 0.02 0.02 0.02 0.02 0.02 0.03 0.03 0.04 0.05 0.05 0.05 0.04 0.03 0.03 0.02 0.02 0.02 0.02 0.02 0.02 0.02 0.02 0.02 0.03 0.03 0.03 0.03 0.02
0.02 0.03 0.02 0.02 0.03 0.02 0.02 0.02 0.01 0.01 0.02 0.03 0.02 0.02 0.02 0.02 0.02 0.02 0.01 0.01 0.02 0.03 0.03 0.03 0.03 0.04 0.04 0.04 0.04 0.03 0.03 0.03 0.02 0.02 0.02 0.02 0.01 0.02 0.02 0.03 0.04 0.03 0.03
0.02 0.03 0.03 0.02 0.02 0.02 0.02 0.02 0.02 0.01 0.01 0.02 0.02 0.02 0.02 0.02 0.02 0.02 0.02 0.01 0.01 0.02 0.03 0.04 0.03 0.04 0.04 0.04 0.04 0.03 0.03 0.03 0.03 0.03 0.02 0.02 0.02 0.01 0.02 0.02 0.03 0.04 0.04
0.02 0.03 0.03 0.03 0.02 0.02 0.02 0.02 0.02 0.02 0.01 0.02 0.02 0.02 0.02 0.02 0.02 0.03 0.02 0.02 0.02 0.02 0.02 0.03 0.04 0.05 0.05 0.05 0.05 0.04 0.03 0.03 0.03 0.03 0.02 0.02 0.02 0.02 0.02 0.02 0.03 0.03 0.04
0.03 0.03 0.03 0.03 0.02 0.02 0.02 0.02 0.03 0.02 0.02 0.02 0.02 0.02 0.01 0.01 0.01 0.02 0.02 0.02 0.03 0.02 0.01 0.02 0.03 0.04 0.05 0.06 0.06 0.05 0.04 0.04 0.03 0.03 0.02 0.02 0.02 0.02 0.02 0.03 0.04 0.04 0.04
0.04 0.04 0.04 0.03 0.03 0.03 0.03 0.02 0.02 0.02 0.02 0.02 0.02 0.02 0.01 0.01 0.01 0.01 0.01 0.01 0.01 0.01 0.01 0.01 0.02 0.03 0.04 0.06 0.07 0.07 0.06 0.05 0.04 0.04 0.03 0.03 0.02 0.02 0.02 0.03 0.03 0.04 0.04
0.04 0.04 0.04 0.03 0.03 0.03 0.03 0.02 0.02 0.02 0.02 0.03 0.03 0.03 0.02 0.01 0.01 0.01 0.01 0.00 0.00 0.01 0.01 0.01 0.01 0.01 0.03 0.05 0.06 0.07 0.08 0.07 0.06 0.04 0.04 0.04 0.03 0.03 0.02 0.03 0.03 0.03 0.03
0.04 0.04 0.03 0.03 0.03 0.03 0.03 0.03 0.02 0.02 0.02 0.02 0.03 0.03 0.03 0.02 0.01 0.01 0.01 0.00 0.00 0.01 0.01 0.01 0.01 0.01 0.01 0.02 0.04 0.05 0.07 0.08 0.06 0.05 0.04 0.04 0.03 0.03 0.03 0.03 0.04 0.03 0.03
0.02 0.03 0.03 0.03 0.03 0.03 0.03 0.03 0.02 0.02 0.02 0.01 0.01 0.01 0.02 0.03 0.02 0.01 0.01 0.01 0.00 0.00 0.00 0.00 0.00 0.01 0.01 0.02 0.02 0.04 0.05 0.06 0.05 0.04 0.03 0.03 0.03 0.03 0.03 0.03 0.03 0.03 0.04
0.02 0.01 0.01 0.02 0.03 0.03 0.03 0.02 0.02 0.01 0.01 0.01 0.01 0.01 0.01 0.01 0.01 0.01 0.01 0.01 0.01 0.00 0.00 0.01 0.01 0.01 0.01 0.02 0.03 0.04 0.04 0.04 0.03 0.04 0.03 0.03 0.03 0.03 0.03 0.02 0.02 0.03 0.03
0.02 0.01 0.01 0.02 0.02 0.03 0.03 0.03 0.02 0.01 0.01 0.01 0.01 0.01 0.01 0.01 0.01 0.01 0.01 0.01 0.01 0.01 0.01 0.01 0.01 0.01 0.01 0.02 0.03 0.04 0.03 0.03 0.02 0.02 0.02 0.03 0.03 0.03 0.03 0.03 0.02 0.02 0.02
0.01 0.01 0.01 0.01 0.02 0.03 0.03 0.02 0.02 0.02 0.02 0.01 0.01 0.01 0.01 0.01 0.01 0.01 0.01 0.01 0.01 0.01 0.01 0.01 0.01 0.01 0.01 0.02 0.02 0.03 0.03 0.03 0.02 0.01 0.01 0.01 0.01 0.02 0.02 0.02 0.02 0.02 0.02
0.01 0.01 0.01 0.01 0.02 0.02 0.02 0.02 0.02 0.01 0.01 0.02 0.01 0.01 0.01 0.01 0.01 0.01 0.01 0.01 0.01 0.01 0.01 0.01 0.01 0.01 0.01 0.02 0.02 0.02 0.02 0.02 0.02 0.01 0.01 0.01 0.01 0.02 0.02 0.02 0.02 0.02 0.02
0.01 0.01 0.01 0.01 0.02 0.02 0.02 0.02 0.01 0.01 0.01 0.01 0.02 0.02 0.02 0.01 0.01 0.02 0.01 0.01 0.01 0.02 0.01 0.01 0.01 0.01 0.01 0.01 0.02 0.02 0.02 0.02 0.02 0.01 0.01 0.01 0.01 0.02 0.02 0.02 0.02 0.02 0.02
0.01 0.01 0.01 0.01 0.02 0.02 0.02 0.01 0.01 0.01 0.01 0.01 0.02 0.02 0.02 0.01 0.01 0.01 0.02 0.02 0.02 0.02 0.01 0.01 0.01 0.01 0.01 0.01 0.02 0.02 0.02 0.02 0.02 0.01 0.01 0.01 0.01 0.02 0.02 0.02 0.02 0.02 0.02
0.01 0.01 0.01 0.01 0.01 0.02 0.02 0.01 0.01 0.01 0.01 0.01 0.01 0.02 0.02 0.01 0.01 0.01 0.01 0.01 0.02 0.02 0.02 0.01 0.01 0.01 0.01 0.01 0.02 0.03 0.03 0.02 0.02 0.02 0.01 0.01 0.02 0.01 0.01 0.01 0.01 0.02 0.02
0.01 0.01 0.01 0.01 0.01 0.02 0.02 0.02 0.01 0.01 0.01 0.01 0.01 0.01 0.02 0.01 0.01 0.01 0.01 0.01 0.01 0.01 0.01 0.01 0.01 0.01 0.01 0.01 0.02 0.02 0.02 0.02 0.02 0.02 0.02 0.02 0.02 0.02 0.01 0.01 0.01 0.02 0.02
0.01 0.01 0.01 0.01 0.02 0.02 0.02 0.02 0.01 0.01 0.01 0.01 0.01 0.01 0.01 0.01 0.01 0.01 0.01 0.01 0.01 0.01 0.01 0.01 0.01 0.01 0.01 0.01 0.01 0.02 0.02 0.02 0.02 0.02 0.02 0.02 0.02 0.01 0.01 0.01 0.02 0.02 0.02
0.01 0.01 0.01 0.01 0.02 0.02 0.02 0.02 0.02 0.01 0.01 0.01 0.01 0.01 0.01 0.01 0.01 0.01 0.01 0.01 0.01 0.01 0.02 0.02 0.02 0.02 0.02 0.02 0.02 0.03 0.02 0.02 0.02 0.02 0.02 0.01 0.01 0.01 0.01 0.01 0.01 0.02 0.02
0.01 0.01 0.01 0.01 0.01 0.01 0.01 0.01 0.01 0.01 0.01 0.01 0.01 0.01 0.01 0.01 0.01 0.01 0.01 0.01 0.01 0.01 0.01 0.02 0.02 0.03 0.03 0.03 0.03 0.03 0.03 0.03 0.02 0.02 0.02 0.02 0.01 0.01 0.01 0.01 0.01 0.01 0.02
MSLP
1006.01 1005.96 1005.90 1005.81 1005.74 1005.70 1005.75 1005.91 1006.20 1006.63 1007.17 1007.79 1008.44 1009.08 1009.66 1010.17 1010.60 1010.96 1011.28 1011.59 1011.92 1012.29 1012.73 1013.22 1013.76 1014.32 1014.87 1015.40 1015.89 1016.32 1016.68 1016.97 1017.20 1017.37 1017.48 1017.53 1017.52 1017.45 1017.32 1017.15 1016.96 1016.76 1016.58
1005.35 1005.41 1005.42 1005.40 1005.35 1005.33 1005.38 1005.55 1005.86 1006.33 1006.92 1007.59 1008.30 1008.99 1009.60 1010.12 1010.54 1010.88 1011.17 1011.45 1011.76 1012.13 1012.56 1013.05 1013.60 1014.17 1014.73 1015.26 1015.74 1016.17 1016.53 1016.83 1017.08 1017.27 1017.40 1017.47 1017.47 1017.40 1017.26 1017.07 1016.85 1016.62 1016.40
1004.68 1004.87 1005.01 1005.08 1005.11 1005.14 1005.22 1005.41 1005.75 1006.25 1006.87 1007.58 1008.33 1009.04 1009.67 1010.19 1010.60 1010.91 1011.17 1011.41 1011.69 1012.02 1012.43 1012.91 1013.44 1013.99 1014.54 1015.06 1015.53 1015.96 1016.32 1016.64 1016.90 1017.12 1017.28 1017.38 1017.41 1017.36 1017.22 1017.03 1016.79 1016.53 1016.29
1004.06 1004.41 1004.71 1004.91 1005.04 1005.14 1005.28 1005.50 1005.86 1006.36 1007.00 1007.72 1008.47 1009.19 1009.81 1010.32 1010.70 1010.98 1011.19 1011.40 1011.63 1011.92 1012.30 1012.75 1013.25 1013.78 1014.30 1014.81 1015.27 1015.69 1016.06 1016.39 1016.68 1016.93 1017.13 1017.27 1017.33 1017.30 1017.19 1017.00 1016.76 1016.49 1016.23
1003.56 1004.09 1004.55 1004.90 1005.15 1005.34 1005.53 1005.77 1006.14 1006.64 1007.26 1007.96 1008.68 1009.37 1009.96 1010.44 1010.78 1011.02 1011.20 1011.37 1011.56 1011.81 1012.15 1012.56 1013.03 1013.53 1014.03 1014.51 1014.96 1015.37 1015.75 1016.10 1016.41 1016.69 1016.93 1017.10 1017.19 1017.20 1017.11 1016.94 1016.71 1016.45 1016.18
1003.25 1003.95 1004.57 1005.07 1005.44 1005.71 1005.94 1006.21 1006.56 1007.02 1007.59 1008.24 1008.90 1009.54 1010.08 1010.51 1010.82 1011.03 1011.17 1011.30 1011.46 1011.68 1011.98 1012.36 1012.79 1013.26 1013.74 1014.20 1014.63 1015.04 1015.41 1015.77 1016.10 1016.40 1016.66 1016.86 1016.98 1017.02 1016.97 1016.83 1016.62 1016.37 1016.11
1003.18 1004.03 1004.80 1005.42 1005.88 1006.22 1006.49 1006.75 1007.07 1007.47 1007.97 1008.53 1009.12 1009.68 1010.17 1010.55 1010.82 1011.00 1011.12 1011.23 1011.37 1011.57 1011.84 1012.19 1012.59 1013.03 1013.47 1013.90 1014.31 1014.70 1015.06 1015.41 1015.74 1016.04 1016.31 1016.53 1016.67 1016.74 1016.71 1016.60 1016.43 1016.21 1015.98
1003.35 1004.32 1005.20 1005.91 1006.45 1006.83 1007.11 1007.35 1007.62 1007.96 1008.37 1008.84 1009.34 1009.82 1010.24 1010.57 1010.81 1010.97 1011.09 1011.19 1011.33 1011.52 1011.77 1012.10 1012.47 1012.87 1013.27 1013.67 1014.04 1014.39 1014.73 1015.05 1015.36 1015.64 1015.90 1016.11 1016.26 1016.34 1016.33 1016.26 1016.12 1015.94 1015.75
1003.73 1004.77 1005.72 1006.49 1007.07 1007.47 1007.75 1007.97 1008.19 1008.46 1008.79 1009.18 1009.59 1010.00 1010.36 1010.65 1010.87 1011.02 1011.14 1011.26 1011.39 1011.58 1011.82 1012.12 1012.46 1012.81 1013.17 1013.52 1013.84 1014.14 1014.43 1014.70 1014.97 1015.21 1015.44 1015.63 1015.77 1015.85 1015.86 1015.81 1015.71 1015.57 1015.42
1004.23 1005.32 1006.30 1007.10 1007.70 1008.11 1008.39 1008.59 1008.77 1008.99 1009.25 1009.57 1009.92 1010.27 1010.59 1010.85 1011.06 1011.21 1011.34 1011.47 1011.61 1011.79 1012.02 1012.29 1012.59 1012.89 1013.19 1013.47 1013.73 1013.97 1014.20 1014.41 1014.61 1014.81 1014.98 1015.13 1015.25 1015.31 1015.32 1015.29 1015.22 1015.12 1015.01
1004.78 1005.88 1006.86 1007.67 1008.28 1008.70 1008.98 1009.19 1009.36 1009.56 1009.79 1010.07 1010.38 1010.69 1010.98 1011.23 1011.43 1011.59 1011.73 1011.86 1012.00 1012.18 1012.38 1012.61 1012.86 1013.11 1013.34 1013.55 1013.74 1013.91 1014.06 1014.20 1014.34 1014.47 1014.59 1014.69 1014.76 1014.80 1014.80 1014.77 1014.71 1014.63 1014.55
1005.30 1006.39 1007.37 1008.17 1008.78 1009.23 1009.54 1009.77 1009.98 1010.19 1010.43 1010.71 1011.00 1011.30 1011.57 1011.81 1012.00 1012.16 1012.29 1012.42 1012.55 1012.70 1012.87 1013.06 1013.25 1013.43 1013.59 1013.73 1013.85 1013.95 1014.03 1014.11 1014.18 1014.25 1014.31 1014.36 1014.38 1014.38 1014.35 1014.29 1014.22 1014.15 1014.08
1005.74 1006.83 1007.79 1008.60 1009.23 1009.72 1010.08 1010.37 1010.64 1010.90 1011.18 1011.48 1011.78 1012.07 1012.34 1012.56 1012.74 1012.88 1013.00 1013.11 1013.22 1013.33 1013.46 1013.59 1013.72 1013.83 1013.93 1014.00 1014.06 1014.09 1014.12 1014.14 1014.16 1014.17 1014.18 1014.17 1014.14 1014.08 1014.00 1013.91 1013.81 1013.70 1013.61
1006.12 1007.20 1008.16 1008.97 1009.64 1010.18 1010.62 1011.00 1011.34 1011.68 1012.01 1012.35 1012.67 1012.97 1013.22 1013.43 1013.59 1013.71 1013.80 1013.87 1013.94 1014.01 1014.09 1014.17 1014.24 1014.29 1014.33 1014.35 1014.35 1014.34 1014.32 1014.30 1014.28 1014.25 1014.20 1014.13 1014.04 1013.92 1013.78 1013.62 1013.46 1013.31 1013.18
1006.47 1007.54 1008.51 1009.35 1010.06 1010.66 1011.18 1011.65 1012.08 1012.50 1012.89 1013.27 1013.61 1013.91 1014.16 1014.34 1014.47 1014.55 1014.61 1014.65 1014.67 1014.70 1014.73 1014.75 1014.77 1014.77 1014.76 1014.74 1014.70 1014.66 1014.61 1014.56 1014.50 1014.43 1014.34 1014.22 1014.06 1013.87 1013.65 1013.42 1013.19 1012.97 1012.78
1006.85 1007.93 1008.90 1009.76 1010.52 1011.18 1011.78 1012.32 1012.84 1013.32 1013.77 1014.17 1014.53 1014.82 1015.04 1015.20 1015.29 1015.35 1015.37 1015.37 1015.36 1015.35 1015.34 1015.32 1015.29 1015.26 1015.21 1015.15 1015.09 1015.02 1014.95 1014.88 1014.79 1014.68 1014.55 1014.37 1014.15 1013.89 1013.59 1013.27 1012.96 1012.66 1012.41
1007.32 1008.40 1009.37 1010.25 1011.04 1011.74 1012.40 1013.00 1013.56 1014.08 1014.56 1014.97 1015.32 1015.60 1015.80 1015.93 1016.00 1016.03 1016.02 1016.00 1015.97 1015.94 1015.90 1015.85 1015.79 1015.73 1015.65 1015.56 1015.47 1015.38 1015.29 1015.19 1015.08 1014.93 1014.76 1014.53 1014.24 1013.91 1013.54 1013.14 1012.75 1012.39 1012.08
1007.91 1008.98 1009.95 1010.83 1011.62 1012.35 1013.02 1013.64 1014.22 1014.75 1015.22 1015.62 1015.94 1016.19 1016.37 1016.48 1016.53 1016.55 1016.54 1016.52 1016.49 1016.45 1016.40 1016.33 1016.25 1016.16 1016.05 1015.93 1015.81 1015.69 1015.58 1015.45 1015.30 1015.13 1014.91 1014.63 1014.30 1013.90 1013.47 1013.02 1012.57 1012.15 1011.79
1008.62 1009.68 1010.62 1011.48 1012.25 1012.96 1013.62 1014.22 1014.78 1015.27 1015.71 1016.07 1016.37 1016.58 1016.73 1016.83 1016.89 1016.92 1016.92 1016.92 1016.90 1016.87 1016.82 1016.74 1016.65 1016.52 1016.38 1016.23 1016.08 1015.92 1015.77 1015.61 1015.43 1015.22 1014.97 1014.66 1014.29 1013.85 1013.38 1012.89 1012.41 1011.97 1011.58
1009.43 1010.44 1011.35 1012.16 1012.89 1013.56 1014.17 1014.72 1015.22 1015.66 1016.04 1016.35 1016.60 1016.78 1016.92 1017.02 1017.09 1017.14 1017.18 1017.21 1017.21 1017.20 1017.16 1017.07 1016.95 1016.80 1016.62 1016.43 1016.23 1016.04 1015.85 1015.66 1015.45 1015.22 1014.94 1014.61 1014.22 1013.77 1013.29 1012.79 1012.30 1011.85 1011.46
1010.26 1011.22 1012.07 1012.83 1013.50 1014.10 1014.65 1015.13 1015.56 1015.93 1016.24 1016.49 1016.69 1016.84 1016.97 1017.07 1017.16 1017.25 1017.32 1017.39 1017.43 1017.43 1017.39 1017.30 1017.15 1016.96 1016.74 1016.51 1016.27 1016.03 1015.81 1015.59 1015.37 1015.12 1014.84 1014.51 1014.13 1013.70 1013.22 1012.74 1012.26 1011.83 1011.45
1011.07 1011.96 1012.75 1013.44 1014.05 1014.59 1015.06 1015.47 1015.82 1016.11 1016.35 1016.53 1016.69 1016.81 1016.93 1017.04 1017.15 1017.27 1017.38 1017.48 1017.54 1017.55 1017.50 1017.39 1017.22 1016.99 1016.73 1016.45 1016.17 1015.91 1015.66 1015.43 1015.21 1014.97 1014.71 1014.41 1014.05 1013.65 1013.21 1012.76 1012.32 1011.90 1011.54
1011.78 1012.61 1013.33 1013.96 1014.52 1014.99 1015.40 1015.74 1016.02 1016.24 1016.42 1016.55 1016.66 1016.76 1016.86 1016.97 1017.10 1017.24 1017.37 1017.48 1017.54 1017.55 1017.49 1017.35 1017.14 1016.88 1016.58 1016.27 1015.96 1015.68 1015.44 1015.22 1015.01 1014.81 1014.59 1014.33 1014.02 1013.67 1013.28 1012.87 1012.45 1012.06 1011.71
1012.37 1013.12 1013.79 1014.38 1014.88 1015.32 1015.68 1015.97 1016.19 1016.36 1016.48 1016.57 1016.64 1016.71 1016.79 1016.90 1017.02 1017.16 1017.29 1017.39 1017.45 1017.44 1017.35 1017.17 1016.93 1016.63 1016.31 1015.98 1015.67 1015.40 1015.17 1014.98 1014.82 1014.66 1014.50 1014.30 1014.05 1013.75 1013.41 1013.03 1012.65 1012.27 1011.91
1012.81 1013.50 1014.12 1014.67 1015.14 1015.55 1015.88 1016.14 1016.33 1016.45 1016.54 1016.59 1016.63 1016.68 1016.74 1016.82 1016.93 1017.05 1017.16 1017.23 1017.26 1017.21 1017.09 1016.88 1016.61 1016.29 1015.95 1015.62 1015.32 1015.07 1014.88 1014.74 1014.64 1014.54 1014.44 1014.30 1014.11 1013.87 1013.57 1013.22 1012.85 1012.48 1012.11
1013.11 1013.74 1014.32 1014.84 1015.29 1015.68 1016.00 1016.25 1016.41 1016.53 1016.58 1016.61 1016.63 1016.65 1016.68 1016.74 1016.81 1016.90 1016.97 1017.01 1016.99 1016.90 1016.74 1016.50 1016.21 1015.88 1015.54 1015.22 1014.95 1014.75 1014.60 1014.52 1014.47 1014.44 1014.40 1014.31 1014.18 1013.97 1013.70 1013.38 1013.02 1012.64 1012.25
Thickness
5565 5565 5567 5568 5569 5568 5569 5569 5569 5570 5571 5570 5570 5570 5570 5571 5572 5572 5572 5572 5572 5572 5573 5574 5575 5576 5576 5577 5578 5578 5578 5578 5579 5579 5581 5585 5588 5590 5591 5591 5591 5591 5592
5553 5555 5556 5557 5558 5558 5558 5560 5559 5560 5561 5561 5561 5561 5561 5560 5561 5562 5561 5561 5561 5562 5563 5563 5564 5565 5566 5566 5567 5567 5567 5567 5567 5567 5567 5570 5574 5578 5580 5580 5580 5580 5580
5545 5545 5546 5545 5546 5547 5548 5550 5549 5550 5551 5550 5550 5550 5549 5548 5549 5550 5550 5551 5551 5551 5552 5553 5554 5555 5555 5556 5556 5556 5556 5556 5555 5556 5555 5555 5559 5562 5566 5568 5568 5568 5568
5535 5535 5536 5535 5535 5536 5537 5538 5540 5540 5540 5540 5539 5539 5538 5537 5538 5539 5540 5540 5541 5541 5542 5543 5543 5544 5544 5545 5546 5546 5545 5545 5545 5544 5545 5545 5546 5547 5552 5555 5555 5555 5556
5524 5525 5525 5525 5525 5525 5526 5527 5529 5530 5530 5529 5529 5528 5527 5526 5526 5527 5528 5529 5530 5530 5531 5532 5533 5533 5533 5534 5534 5534 5534 5534 5534 5534 5534 5533 5534 5535 5536 5542 5544 5543 5544
5513 5513 5513 5514 5514 5514 5515 5515 5517 5518 5518 5518 5517 5517 5516 5515 5514 5515 5516 5516 5517 5519 5520 5521 5522 5522 5523 5523 5523 5523 5523 5523 5524 5524 5524 5524 5524 5524 5524 5527 5530 5531 5533
5502 5501 5502 5502 5503 5503 5503 5504 5505 5505 5506 5506 5506 5506 5505 5504 5504 5504 5504 5504 5505 5506 5508 5509 5511 5511 5512 5512 5512 5513 5513 5513 5513 5514 5514 5514 5514 5515 5514 5515 5517 5518 5520
5492 5492 5493 5493 5493 5493 5493 5493 5494 5494 5495 5495 5495 5495 5495 5494 5493 5493 5493 5493 5494 5495 5496 5497 5499 5500 5501 5502 5502 5503 5503 5503 5503 5504 5504 5504 5505 5504 5504 5503 5503 5504 5507
5485 5484 5483 5483 5483 5483 5483 5483 5483 5483 5483 5483 5483 5483 5483 5483 5482 5482 5482 5482 5483 5484 5485 5486 5488 5489 5491 5492 5493 5493 5493 5493 5494 5495 5495 5495 5495 5495 5495 5494 5493 5492 5495
5476 5476 5475 5475 5474 5474 5473 5472 5472 5472 5472 5471 5471 5472 5472 5472 5472 5471 5472 5472 5472 5473 5474 5475 5477 5479 5481 5482 5482 5483 5484 5484 5485 5486 5486 5486 5487 5486 5486 5485 5484 5483 5483
5468 5467 5466 5466 5465 5464 5463 5462 5460 5460 5460 5460 5461 5461 5461 5461 5461 5461 5461 5461 5462 5463 5463 5465 5467 5469 5471 5472 5473 5474 5475 5476 5477 5477 5478 5478 5478 5478 5478 5477 5475 5474 5473
5460 5459 5458 5456 5454 5454 5453 5451 5450 5450 5450 5450 5450 5450 5450 5450 5450 5450 5451 5452 5452 5454 5454 5456 5458 5460 5462 5463 5463 5465 5467 5468 5468 5469 5470 5470 5470 5470 5469 5468 5467 5466 5465
5452 5450 5448 5446 5445 5445 5443 5442 5441 5440 5440 5440 5440 5440 5440 5440 5440 5441 5442 5443 5443 5445 5446 5447 5449 5451 5453 5454 5455 5456 5458 5459 5460 5461 5461 5462 5462 5462 5461 5460 5459 5458 5457
5444 5442 5439 5437 5437 5436 5435 5434 5432 5432 5432 5431 5431 5430 5430 5431 5431 5432 5433 5434 5434 5436 5437 5438 5440 5442 5444 5445 5446 5448 5449 5450 5452 5453 5453 5454 5454 5454 5453 5453 5451 5449 5448
5438 5435 5432 5429 5428 5427 5426 5425 5424 5424 5423 5422 5422 5422 5422 5423 5423 5423 5424 5424 5425 5426 5427 5429 5431 5433 5435 5437 5438 5440 5441 5442 5443 5444 5445 5446 5446 5446 5446 5445 5444 5442 5440
5432 5429 5426 5424 5422 5420 5419 5418 5417 5416 5415 5414 5414 5414 5414 5414 5414 5414 5414 5415 5416 5417 5418 5420 5422 5424 5427 5429 5431 5432 5433 5434 5435 5435 5436 5437 5437 5437 5437 5437 5437 5435 5433
5425 5422 5419 5417 5416 5414 5412 5410 5409 5408 5407 5406 5406 5405 5404 5404 5405 5405 5405 5406 5407 5408 5410 5412 5413 5415 5418 5420 5423 5424 5425 5426 5426 5427 5427 5427 5428 5428 5428 5428 5427 5426 5426
5418 5415 5413 5411 5409 5407 5405 5403 5402 5400 5399 5398 5397 5396 5396 5395 5395 5396 5396 5397 5398 5399 5401 5402 5404 5406 5409 5412 5414 5415 5416 5417 5417 5418 5418 5418 5419 5420 5420 5419 5419 5418 5418
5412 5408 5406 5404 5402 5400 5398 5396 5394 5392 5391 5390 5389 5388 5388 5387 5387 5387 5388 5389 5390 5391 5392 5394 5395 5397 5399 5402 5405 5406 5406 5407 5407 5408 5409 5410 5411 5412 5412 5411 5410 5410 5411
5405 5402 5400 5397 5395 5393 5391 5389 5387 5385 5384 5382 5381 5381 5380 5379 5379 5379 5379 5380 5381 5382 5384 5385 5386 5388 5390 5393 5395 5396 5396 5397 5398 5399 5400 5401 5403 5404 5404 5402 5402 5402 5403
5398 5396 5393 5391 5389 5387 5384 5382 5380 5379 5378 5376 5374 5373 5372 5372 5371 5371 5371 5372 5373 5374 5375 5376 5378 5379 5381 5383 5385 5386 5387 5387 5388 5389 5390 5392 5394 5395 5395 5395 5394 5396 5396
5390 5388 5385 5383 5382 5380 5377 5375 5373 5372 5370 5368 5367 5366 5365 5365 5365 5364 5364 5365 5365 5366 5366 5368 5369 5371 5373 5374 5376 5378 5379 5379 5379 5381 5382 5383 5385 5386 5387 5387 5388 5389 5388
5383 5381 5378 5376 5375 5373 5371 5368 5367 5364 5362 5361 5360 5359 5359 5358 5358 5358 5358 5358 5358 5358 5360 5361 5362 5364 5365 5366 5368 5370 5371 5372 5372 5373 5374 5375 5376 5377 5378 5379 5380 5380 5379
5377 5374 5372 5370 5368 5366 5364 5363 5361 5358 5356 5354 5353 5353 5352 5352 5352 5352 5352 5352 5352 5352 5354 5355 5356 5357 5358 5359 5361 5362 5363 5365 5365 5365 5366 5368 5368 5369 5370 5371 5371 5371 5372
5370 5368 5366 5364 5362 5360 5358 5356 5354 5352 5350 5348 5347 5347 5347 5346 5346 5346 5346 5346 5347 5347 5348 5349 5349 5350 5352 5354 5356 5357 5358 5359 5359 5359 5359 5360 5361 5362 5363 5363 5364 5364 5365
5364 5362 5359 5358 5356 5354 5352 5350 5349 5347 5344 5343 5342 5341 5341 5340 5340 5340 5340 5341 5342 5343 5344 5344 5345 5346 5348 5350 5351 5352 5353 5354 5354 5354 5353 5354 5354 5354 5355 5356 5357 5358 5359